Watertown, NY

3:22 PM EDT on April 28, 2017 (GMT -0400)
Watertown International

Weather History for KART - February, 2013

Change the Weather History Date:

Wednesday, February 20, 2013

  Actual Average Record
Temperature  
Mean Temperature 24 °F 22 °F  
Max Temperature 29 °F 33 °F 62 °F (1994)
Min Temperature 19 °F 11 °F -16 °F (1950)
Degree Days  
Heating Degree Days 41 43  
Month to date heating degree days 929 897  
Since 1 July heating degree days 4574 5108  
Cooling Degree Days 0 0  
Month to date cooling degree days 0 0  
Year to date cooling degree days 0 0  
Moisture  
Dew Point 17 °F    
Average Humidity 74    
Maximum Humidity 92    
Minimum Humidity 55    
Precipitation  
Precipitation 0.02 in 0.08 in 0.70 in (1981)
Month to date precipitation 0.96 1.57  
Year to date precipitation 3.16 4.23  
Sea Level Pressure  
Sea Level Pressure 29.82 in    
Wind  
Wind Speed 18 mph (WSW)    
Max Wind Speed 23 mph    
Max Gust Speed 37 mph    
Visibility 6 miles    
Events Fog , Snow    
T = Trace of Precipitation, MM = Missing Value Source: NWS Daily Summary

Daily Weather History Graph

Daily Weather History Graph

Search for Another Location

Airport or City:

Trip Planner

Search our weather history database for the weather conditions in past years. The results will help you decide how hot, cold, wet, or windy it might be!

Date:

Astronomy

Feb. 20, 2013 Rise Set
Actual Time 6:55 AM EST 5:40 PM EST
Civil Twilight 6:25 AM EST 6:10 PM EST
Nautical Twilight 5:52 AM EST 6:43 PM EST
Astronomical Twilight 5:19 AM EST 7:17 PM EST
Moon 12:54 PM EST (2/20) 3:20 AM EST (2/20)
Length of Visible Light 11h 44m
Length of Day
10h 45m
Waxing Gibbous, 76% of the Moon is Illuminated
Feb 20
Waxing Gibbous
Feb 25
Full
Mar 4
Last Quarter
Mar 11
New
Mar 19
First Quarter

Hourly Weather History & Observations

Time (EST) Temp. Windchill Dew Point Humidity Pressure Visibility Wind Dir Wind Speed Gust Speed Precip Events Conditions
12:08 AM 28.4 °F 15.4 °F 24.8 °F 86% 29.68 in 7.0 mi WSW 19.6 mph 31.1 mph 0.00 in Snow Light Snow
12:25 AM 28.4 °F 16.2 °F 24.8 °F 86% 29.68 in 9.0 mi WSW 17.3 mph 25.3 mph 0.00 in Snow Light Snow
12:38 AM 28.4 °F 16.6 °F 21.2 °F 74% 29.68 in 8.0 mi WSW 16.1 mph 33.4 mph 0.00 in Snow Light Snow
12:56 AM 28.9 °F 16.1 °F 24.1 °F 82% 29.70 in 5.0 mi WSW 19.6 mph 29.9 mph 0.00 in Snow Light Snow
2:00 AM 28.4 °F 16.2 °F 24.8 °F 86% 29.69 in 1.2 mi WSW 17.3 mph 33.4 mph 0.00 in Snow Light Snow
2:17 AM 28.4 °F 16.2 °F 24.8 °F 86% 29.69 in 3.0 mi WSW 17.3 mph 26.5 mph 0.01 in Snow Light Snow
2:34 AM 28.4 °F 14.4 °F 24.8 °F 86% 29.70 in 1.5 mi WSW 23.0 mph 31.1 mph 0.01 in Snow Light Snow
2:45 AM 26.6 °F 13.1 °F 24.8 °F 93% 29.70 in 0.5 mi WSW 19.6 mph 36.8 mph 0.01 in Fog , Snow Snow
2:47 AM 26.6 °F 13.1 °F 24.8 °F 93% 29.70 in 0.2 mi WSW 19.6 mph 36.8 mph 0.01 in Fog , Snow Snow
2:56 AM 27.0 °F 15.2 °F 25.0 °F 92% 29.71 in 0.5 mi WSW 15.0 mph 25.3 mph 0.01 in Fog , Snow Snow
3:16 AM 26.6 °F 13.8 °F 24.8 °F 93% 29.70 in 0.8 mi WSW 17.3 mph 28.8 mph 0.01 in Snow Light Snow
3:26 AM 26.6 °F 14.7 °F 24.8 °F 93% 29.70 in 1.0 mi WSW 15.0 mph 28.8 mph 0.01 in Snow Light Snow
3:37 AM 26.6 °F 14.7 °F 24.8 °F 93% 29.70 in 1.5 mi WSW 15.0 mph 26.5 mph 0.01 in Snow Light Snow
3:43 AM 26.6 °F 13.4 °F 24.8 °F 93% 29.70 in 3.0 mi WSW 18.4 mph 28.8 mph 0.01 in Snow Light Snow
3:56 AM 27.0 °F 14.3 °F 21.9 °F 81% 29.72 in 8.0 mi WSW 17.3 mph 24.2 mph 0.01 in   Overcast
4:56 AM 26.6 °F 15.2 °F 19.4 °F 74% 29.71 in 9.0 mi West 13.8 mph 24.2 mph N/A   Overcast
5:56 AM 26.6 °F 14.3 °F 15.8 °F 64% 29.72 in 10.0 mi West 16.1 mph 25.3 mph N/A   Overcast
6:56 AM 26.1 °F 13.1 °F 14.0 °F 60% 29.75 in 10.0 mi West 17.3 mph 24.2 mph N/A   Overcast
7:56 AM 25.0 °F 13.6 °F 14.0 °F 63% 29.77 in 10.0 mi West 12.7 mph 24.2 mph N/A   Overcast
8:56 AM 25.0 °F 12.6 °F 14.0 °F 63% 29.77 in 10.0 mi West 15.0 mph 24.2 mph N/A   Mostly Cloudy
9:56 AM 26.1 °F 11.3 °F 12.0 °F 55% 29.78 in 10.0 mi West 23.0 mph 31.1 mph N/A   Partly Cloudy
10:56 AM 26.1 °F 11.6 °F 12.0 °F 55% 29.79 in 10.0 mi West 21.9 mph 32.2 mph N/A   Scattered Clouds
11:56 AM 25.0 °F 11.7 °F 12.0 °F 58% 29.79 in 10.0 mi West 17.3 mph 28.8 mph N/A   Mostly Cloudy
12:54 PM 24.8 °F 12.4 °F 15.8 °F 69% 29.78 in 2.5 mi WSW 15.0 mph 27.6 mph 0.00 in Snow Light Snow
12:56 PM 26.1 °F 13.1 °F 16.0 °F 66% 29.80 in 4.0 mi WSW 17.3 mph - 0.00 in Snow Light Snow
1:56 PM 24.8 °F 12.4 °F 15.8 °F 69% 29.79 in 8.0 mi WSW 15.0 mph 23.0 mph N/A   Overcast
2:56 PM 25.0 °F 11.7 °F 17.1 °F 72% 29.83 in 10.0 mi WSW 17.3 mph 24.2 mph 0.00 in   Overcast
3:56 PM 26.1 °F 13.6 °F 15.1 °F 63% 29.84 in 10.0 mi WSW 16.1 mph 27.6 mph 0.00 in   Overcast
4:56 PM 26.1 °F 13.6 °F 15.1 °F 63% 29.87 in 10.0 mi WSW 16.1 mph 24.2 mph N/A   Overcast
5:56 PM 25.0 °F 10.9 °F 16.0 °F 69% 29.88 in 10.0 mi WSW 19.6 mph 28.8 mph N/A   Overcast
6:30 PM 24.8 °F 11.9 °F 15.8 °F 69% 29.87 in 10.0 mi West 16.1 mph 32.2 mph N/A   Overcast
6:56 PM 25.0 °F 11.3 °F 16.0 °F 69% 29.90 in 10.0 mi WSW 18.4 mph 29.9 mph N/A   Overcast
7:56 PM 23.0 °F 8.3 °F 12.9 °F 65% 29.92 in 10.0 mi West 19.6 mph 29.9 mph N/A   Overcast
8:10 PM 21.2 °F 6.8 °F 12.2 °F 68% 29.91 in 10.0 mi West 17.3 mph 28.8 mph N/A   Overcast
8:54 PM 21.2 °F 4.9 °F 12.2 °F 68% 29.93 in 10.0 mi West 23.0 mph 34.5 mph N/A   Overcast
8:56 PM 21.0 °F 5.4 °F 12.9 °F 71% 29.96 in 10.0 mi West 20.7 mph 34.5 mph N/A   Overcast
9:23 PM 21.2 °F 4.9 °F 12.2 °F 68% 29.94 in 8.0 mi West 23.0 mph 32.2 mph 0.00 in Snow Light Snow
9:38 PM 21.2 °F 6.0 °F 12.2 °F 68% 29.94 in 3.0 mi West 19.6 mph 32.2 mph 0.00 in Snow Light Snow
9:43 PM 21.2 °F 5.2 °F 12.2 °F 68% 29.94 in 1.8 mi West 21.9 mph 27.6 mph 0.00 in Snow Light Snow
9:53 PM 19.4 °F 3.6 °F 15.8 °F 86% 29.95 in 0.5 mi West 19.6 mph 28.8 mph 0.00 in Snow Snow
9:54 PM 19.9 °F 5.2 °F 15.1 °F 81% 29.97 in 0.5 mi West 17.3 mph 28.8 mph 0.00 in Snow Snow
10:17 PM 19.4 °F 3.2 °F 15.8 °F 86% 29.95 in 1.8 mi West 20.7 mph 26.5 mph N/A Snow Light Snow
10:24 PM 19.4 °F 4.5 °F 15.8 °F 86% 29.95 in 1.8 mi West 17.3 mph 26.5 mph 0.00 in Snow Light Snow
10:56 PM 19.0 °F 4.0 °F 14.0 °F 81% 29.97 in 1.0 mi West 17.3 mph 26.5 mph 0.00 in Snow Light Snow
11:11 PM 19.4 °F 4.5 °F 14.0 °F 80% 29.95 in 3.0 mi West 17.3 mph 26.5 mph 0.00 in Snow Light Snow
11:19 PM 19.4 °F 4.5 °F 14.0 °F 80% 29.94 in 3.0 mi West 17.3 mph 27.6 mph N/A Snow Light Snow
11:31 PM 19.4 °F 6.0 °F 14.0 °F 80% 29.94 in 1.8 mi West 13.8 mph - 0.00 in Snow Light Snow
11:40 PM 19.4 °F 4.5 °F 12.2 °F 74% 29.94 in 2.5 mi West 17.3 mph 23.0 mph N/A Snow Light Snow
11:48 PM 19.4 °F 5.0 °F 12.2 °F 74% 29.95 in 3.0 mi West 16.1 mph - 0.00 in Snow Light Snow
11:56 PM 19.0 °F 5.0 °F 12.9 °F 77% 29.97 in 3.0 mi West 15.0 mph - 0.00 in Snow Light Snow